Jonesville, VA

2:34 PM EDT on September 26, 2017 (GMT -0400)
Jonesville

Weather History for K0VG - March, 2014

Change the Weather History Date:

Monday, March 10, 2014

  Actual Average (KLNP) Record (KLNP)
Temperature  
Mean Temperature 44 °F -  
Max Temperature 64 °F 48 °F 75 °F (2016)
Min Temperature 24 °F 30 °F 17 °F (1998)
Degree Days  
Heating Degree Days 21    
Moisture  
Dew Point 30 °F    
Average Humidity 71    
Maximum Humidity 100    
Minimum Humidity 4    
Precipitation  
Precipitation 0.00 in - - ()
Sea Level Pressure  
Sea Level Pressure 30.01 in    
Wind  
Wind Speed 4 mph (WSW)    
Max Wind Speed 13 mph    
Max Gust Speed 18 mph    
Visibility 10 miles    
Events      
Averages and records for this station are not official NWS values.
T = Trace of Precipitation, MM = Missing Value Source: NWS Daily Summary

Daily Weather History Graph

Daily Weather History Graph

Search for Another Location

Airport or City:

Trip Planner

Search our weather history database for the weather conditions in past years. The results will help you decide how hot, cold, wet, or windy it might be!

Date:

Astronomy

Mar. 10, 2014 Rise Set
Actual Time 7:50 AM EDT 7:35 PM EDT
Civil Twilight 7:25 AM EDT 8:01 PM EDT
Nautical Twilight 6:55 AM EDT 8:31 PM EDT
Astronomical Twilight 6:25 AM EDT 9:01 PM EDT
Moon 2:24 PM EDT (3/10) 3:55 AM EDT (3/10)
Length of Visible Light 12h 36m
Length of Day
11h 44m
Waxing Gibbous, 70% of the Moon is Illuminated
Mar 10
Waxing Gibbous
Mar 16
Full
Mar 23
Last Quarter
Mar 30
New
Apr 7
First Quarter

Hourly Weather History & Observations

Time (EDT) Temp. Windchill Dew Point Humidity Pressure Visibility Wind Dir Wind Speed Gust Speed Precip Events Conditions
12:22 AM 32.0 °F - 28.4 °F 87% 30.11 in 10.0 mi Calm Calm - N/A   Clear
12:24 AM 32.0 °F - 28.4 °F 87% 30.11 in 10.0 mi Calm Calm - N/A   Clear
12:40 AM 32.0 °F - 28.4 °F 87% 30.11 in 10.0 mi Calm Calm - N/A   Clear
12:42 AM 32.0 °F - 28.4 °F 87% 30.11 in 10.0 mi Calm Calm - N/A   Clear
1:15 AM - - - N/A% - - Calm Calm - N/A   Clear
1:35 AM 32.0 °F - -115.6 °F 4% 30.10 in 10.0 mi Calm Calm - N/A   Clear
1:50 AM 28.4 °F - 26.6 °F 93% 30.10 in - Calm Calm - N/A   Clear
2:15 AM 30.2 °F - 26.6 °F 86% - 10.0 mi North - - N/A   Clear
3:00 AM 28.4 °F - 26.6 °F 93% 30.10 in 10.0 mi Calm Calm - N/A   Clear
3:01 AM 28.4 °F - 26.6 °F 93% 30.10 in 10.0 mi Calm Calm - N/A   Clear
3:03 AM 28.4 °F - 26.6 °F 93% 30.10 in 10.0 mi Calm Calm - N/A   Clear
3:38 AM - - - N/A% - 10.0 mi North - - N/A   Unknown
3:58 AM - - - N/A% - 10.0 mi North - - N/A   Unknown
6:21 AM 26.6 °F 17.5 °F 24.8 °F 93% 30.09 in 10.0 mi North 9.2 mph - N/A   Clear
6:23 AM 26.6 °F 17.5 °F 24.8 °F 93% 30.09 in 10.0 mi North 9.2 mph - N/A   Clear
6:24 AM 26.6 °F 17.5 °F 24.8 °F 93% 30.09 in 10.0 mi North 9.2 mph - N/A   Clear
6:41 AM 26.6 °F - 24.8 °F 93% 30.09 in 10.0 mi Calm Calm - N/A   Mostly Cloudy
6:43 AM 26.6 °F - 24.8 °F 93% 30.09 in 10.0 mi Calm Calm - N/A   Mostly Cloudy
6:44 AM 26.6 °F - 24.8 °F 93% 30.09 in 10.0 mi Calm Calm - N/A   Mostly Cloudy
7:15 AM 24.8 °F - 24.8 °F 100% - 10.0 mi North - - N/A   Partly Cloudy
7:55 AM - - - N/A% - 8.0 mi Calm Calm - N/A   Scattered Clouds
8:15 AM 26.6 °F 17.5 °F 26.6 °F 100% 30.09 in 9.0 mi North 9.2 mph - N/A   Unknown
8:55 AM - - - N/A% - 10.0 mi North - - N/A   Overcast
9:23 AM 32.0 °F 24.2 °F 28.4 °F 87% 30.10 in 10.0 mi North 9.2 mph - N/A   Overcast
9:25 AM 32.0 °F 24.2 °F 28.4 °F 87% 30.10 in 10.0 mi North 9.2 mph - N/A   Overcast
9:26 AM 32.0 °F 24.2 °F 28.4 °F 87% 30.10 in 10.0 mi North 9.2 mph - N/A   Overcast
10:40 AM - - - N/A% - 10.0 mi Calm Calm - N/A   Overcast
10:42 AM - - - N/A% - 10.0 mi Calm Calm - N/A   Overcast
10:55 AM 39.2 °F - 32.0 °F 75% 30.09 in 10.0 mi North - - N/A   Overcast
11:21 AM - - - N/A% - 10.0 mi Calm Calm - N/A   Overcast
11:23 AM - - - N/A% - 10.0 mi Calm Calm - N/A   Overcast
11:24 AM - - - N/A% - 10.0 mi Calm Calm - N/A   Overcast
11:40 AM - - - N/A% - 10.0 mi WSW 6.9 mph - N/A   Overcast
11:42 AM - - - N/A% - 10.0 mi WSW 6.9 mph - N/A   Overcast
11:55 AM 53.6 °F - 39.2 °F 58% 30.06 in 10.0 mi SW 10.4 mph 16.1 mph N/A   Mostly Cloudy
12:15 PM 53.6 °F - 39.2 °F 58% - 10.0 mi WSW 8.1 mph 16.1 mph N/A   Mostly Cloudy
12:40 PM 53.6 °F - 39.2 °F 58% 30.05 in 10.0 mi North - - N/A   Mostly Cloudy
12:50 PM 53.6 °F - 41.0 °F 62% - - SW 11.5 mph - N/A   Overcast
1:10 PM - - - N/A% - 10.0 mi SW 10.4 mph - N/A   Mostly Cloudy
1:30 PM 57.2 °F - 41.0 °F 55% 30.02 in 10.0 mi North - - N/A   Scattered Clouds
1:55 PM 57.2 °F - 41.0 °F 55% 30.01 in 10.0 mi SW 8.1 mph - N/A   Partly Cloudy
2:15 PM - - - N/A% 29.99 in 10.0 mi SW 10.4 mph 17.3 mph N/A   Partly Cloudy
2:40 PM 59.0 °F - 39.2 °F 48% - 10.0 mi SW 10.4 mph 18.4 mph N/A   Clear
2:55 PM - - - N/A% 29.96 in 10.0 mi North - - N/A   Clear
3:40 PM 60.8 °F - 39.2 °F 45% 29.94 in 10.0 mi SW 6.9 mph - N/A   Clear
3:42 PM 60.8 °F - 39.2 °F 45% 29.94 in 10.0 mi SW 6.9 mph - N/A   Clear
3:55 PM - - - N/A% 29.93 in 10.0 mi North - - N/A   Unknown
4:20 PM - - - N/A% - 10.0 mi SW 11.5 mph 18.4 mph N/A   Clear
4:22 PM - - - N/A% - 10.0 mi SW 11.5 mph 18.4 mph N/A   Clear
5:21 PM 64.4 °F - 39.2 °F 40% 29.91 in 10.0 mi SSW 12.7 mph - N/A   Clear
5:23 PM 64.4 °F - 39.2 °F 40% 29.91 in 10.0 mi SSW 12.7 mph - N/A   Clear
5:24 PM 64.4 °F - 39.2 °F 40% 29.91 in 10.0 mi SSW 12.7 mph - N/A   Clear
5:55 PM 64.4 °F - 39.2 °F 40% 29.91 in - SW 10.4 mph - N/A   Clear
6:20 PM 62.6 °F - 39.2 °F 42% 29.90 in 10.0 mi WSW 11.5 mph - N/A   Clear
6:22 PM 62.6 °F - 39.2 °F 42% 29.90 in 10.0 mi WSW 11.5 mph - N/A   Clear
6:41 PM - - - N/A% - 10.0 mi SW 10.4 mph 18.4 mph N/A   Clear
6:43 PM - - - N/A% - 10.0 mi SW 10.4 mph 18.4 mph N/A   Clear
6:44 PM - - - N/A% - 10.0 mi SW 10.4 mph 18.4 mph N/A   Clear
7:20 PM 60.8 °F - 41.0 °F 48% 29.90 in - SW 4.6 mph - N/A   Clear
7:55 PM 57.2 °F - 41.0 °F 55% 29.90 in - Calm Calm - N/A   Clear
8:35 PM 53.6 °F - 41.0 °F 62% 29.90 in 10.0 mi Calm Calm - N/A   Unknown
9:00 PM 48.2 °F - 39.2 °F 71% 29.90 in 10.0 mi NNE 3.5 mph - N/A   Unknown
9:02 PM 48.2 °F - 39.2 °F 71% 29.90 in 10.0 mi NNE 3.5 mph - N/A   Unknown
9:20 PM - - - N/A% - 10.0 mi NNE 3.5 mph - N/A   Unknown
9:22 PM - - - N/A% - 10.0 mi NNE 3.5 mph - N/A   Unknown
9:38 PM - - - N/A% 29.90 in 10.0 mi North - - N/A   Partly Cloudy
11:00 PM 42.8 °F - 39.2 °F 87% 29.90 in 10.0 mi Calm Calm - N/A   Clear
11:05 PM 42.8 °F - 39.2 °F 87% 29.90 in 10.0 mi Calm Calm - N/A   Clear
11:07 PM 42.8 °F - 39.2 °F 87% 29.90 in 10.0 mi Calm Calm - N/A   Clear